[[{"header":{"parameterUnit":"m.s-1","parameterCategory":1,"la1":30.2991,"la2":30.254,"lo1":-89.0895,"lo2":-89.0444,"dy":0.0017,"dx":0.0017,"nx":28,"ny":28,"refTime":"2025-09-18T03:00:00:Z","depth":0,"parameterNumber":2,"parameterNumberName":"U-component_of_WINDS"},"data":[0,0,0,0,0,0,0,0,0,0,0,0,0,0,0,0,0,0,0,0,0,0,0,0,0,0,0,0,0,0,0,0,0,0,0,0,0,0,0,0,0,0,0,0,0,0,0,0,0,0,0,0,0,0,0,0,0,0,1.5207,1.5207,0,1.5254,1.5255,1.5255,1.5297,1.5298,1.5298,1.5299,1.5345,1.5346,1.5347,0,0,0,0,0,0,0,0,0,0,0,0,0,1.5151,1.5151,1.5207,1.5207,1.5208,1.5254,1.5255,1.5255,1.5297,1.5298,1.5299,1.5299,1.5345,1.5346,1.5347,0,0,0,0,0,0,0,0,0,0,0,0,0,1.5184,1.5152,1.5206,1.5234,1.5237,1.5254,1.5255,1.5256,1.5297,1.5298,1.5299,1.5299,1.5345,1.5346,1.5347,1.5339,0,0,1.535,1.5351,0,0,0,0,0,0,0,0,1.5182,1.5186,1.523,1.5232,1.5236,1.5271,1.5252,1.5283,1.5297,1.5274,1.5299,1.53,1.532,1.5323,1.533,1.5341,1.5343,1.535,1.5351,1.5352,1.5352,0,0,0,0,0,0,0,1.518,1.5184,1.5225,1.523,1.5234,1.5244,1.525,1.5258,1.5292,1.5276,1.528,1.5285,1.5321,1.5329,1.5331,1.5344,1.535,1.5351,1.5352,1.5353,1.5352,1.5351,0,0,0,0,0,0,1.5173,1.5182,1.5224,1.5227,1.521,1.5244,1.5251,1.5259,1.5292,1.5298,1.5284,1.5287,1.5326,1.533,1.5333,1.5327,1.5352,1.5353,1.5353,1.5353,1.5352,1.5351,0,0,0,0,0,0,1.5172,1.5177,1.5222,1.5205,1.5212,1.5245,1.5253,1.5259,1.5267,1.5298,1.5304,1.5286,1.5327,1.5332,1.5338,1.5329,1.5353,1.5354,1.5353,1.5352,1.5351,1.5313,0,0,0,0,0,0,1.517,1.5176,1.5173,1.5205,1.5213,1.5226,1.5253,1.526,1.5269,1.5273,1.5301,1.5306,1.5328,1.5336,1.5339,1.5331,1.5355,1.5354,1.5353,1.5352,1.5315,1.5311,1.5307,0,0,0,0,0,1.5168,1.516,1.5173,1.5178,1.521,1.5225,1.5229,1.5255,1.5268,1.5266,1.5286,1.5305,1.533,1.5336,1.534,1.5332,1.5355,1.5353,1.5352,1.5317,1.5312,1.5307,0,0,0,0,0,0,1.5125,1.5164,1.5179,1.5181,1.52,1.5232,1.523,1.5249,1.5263,1.5266,1.5297,1.5303,1.5305,1.532,1.5326,1.5327,1.5345,1.5344,1.5317,1.5312,1.5308,1.5304,1.5356,0,0,0,0,0,1.5116,1.5125,1.5159,1.5157,1.5166,1.5196,1.5204,1.5222,1.5242,1.525,1.5271,1.5289,1.5301,1.5307,1.532,1.5318,1.5325,1.5315,1.5311,1.5307,1.5305,1.5306,1.5302,1.5346,1.5346,1.5346,0,0,1.5096,1.5119,1.5123,1.5149,1.5166,1.5174,1.5202,1.521,1.5217,1.5251,1.5258,1.5274,1.5296,1.5299,1.5301,1.531,1.5295,1.5305,1.5302,1.5302,1.5304,1.53,1.5296,1.5345,1.5345,1.5345,0,0,1.5065,1.5084,1.5085,1.5101,1.5127,1.5147,1.5148,1.5178,1.519,1.5198,1.5224,1.5233,1.5252,1.5267,1.5277,1.5255,1.5273,1.5258,1.5236,1.5236,1.5233,1.523,1.5222,1.5218,1.5257,1.5257,1.5257,0,1.5038,1.5052,1.5083,1.5089,1.51,1.5134,1.5135,1.5149,1.5176,1.5183,1.5194,1.5221,1.5238,1.5244,1.5239,1.5246,1.5247,1.5254,1.5231,1.5229,1.5226,1.5219,1.5215,1.5255,1.5255,1.5255,1.5255,0,1.5017,1.5027,1.5025,1.5052,1.5063,1.5067,1.5097,1.5105,1.5123,1.5143,1.5151,1.5174,1.5191,1.5195,1.5212,1.5204,1.521,1.5226,1.5244,1.522,1.5213,1.521,1.5252,1.5253,1.5253,1.5254,0,0,1.4958,1.5004,1.5002,1.5016,1.5047,1.5055,1.5061,1.508,1.5086,1.5104,1.5109,1.5126,1.5142,1.5154,1.5173,1.5174,1.5155,1.519,1.5191,1.5182,1.5147,1.5134,1.513,1.5168,1.5168,1.5167,1.5145,0,1.4932,1.4944,1.4973,1.4976,1.4986,1.5019,1.5024,1.5044,1.5063,1.5074,1.5095,1.5106,1.5126,1.5133,1.5135,1.5156,1.5148,1.5159,1.5172,1.5172,1.5164,1.5127,1.5113,1.509,1.5143,1.5142,1.5142,0,1.4902,1.492,1.4925,1.4957,1.4962,1.4966,1.4987,1.4997,1.502,1.5034,1.5048,1.5071,1.5079,1.5097,1.5108,1.5115,1.5123,1.5134,1.5134,1.5135,1.5155,1.5126,1.5084,1.508,1.5138,1.5139,1.5139,0,1.4857,1.4883,1.489,1.49,1.4938,1.494,1.4956,1.498,1.4991,1.5008,1.5015,1.5033,1.5043,1.5056,1.5083,1.5094,1.5092,1.5112,1.5103,1.5102,1.5099,1.5098,1.5057,1.5106,1.5106,1.5106,1.5106,0,1.4824,1.4826,1.4871,1.4874,1.4877,1.4911,1.4912,1.4931,1.4953,1.4961,1.4991,1.4998,1.5033,1.5044,1.5065,1.5071,1.5076,1.5087,1.5092,1.5083,1.5082,1.5087,1.5089,1.5105,1.5105,1.5105,1.5106,0,1.4774,1.4804,1.4814,1.485,1.4859,1.486,1.489,1.4895,1.4917,1.4927,1.4931,1.4965,1.4979,1.5008,1.503,1.5045,1.5046,1.5056,1.5038,1.5041,1.5029,1.503,1.4989,1.4985,1.5037,1.5037,1.5036,0,1.475,1.4753,1.479,1.4798,1.4813,1.4825,1.4837,1.487,1.488,1.4908,1.4909,1.4927,1.4942,1.4964,1.499,1.5007,1.5017,1.5002,1.502,1.5012,1.5016,1.5015,1.5016,1.4997,1.4997,1.4996,1.4996,0,1.4705,1.472,1.4735,1.4756,1.4769,1.4787,1.4806,1.481,1.4848,1.4858,1.4874,1.4886,1.491,1.4927,1.4948,1.4964,1.4986,1.499,1.4989,1.4979,1.4968,1.4973,1.5025,1.499,1.4991,1.4991,1.4992,1.4992,1.4667,1.4671,1.4698,1.4714,1.4732,1.475,1.4757,1.4781,1.4795,1.4817,1.4836,1.4851,1.4875,1.4907,1.4922,1.4933,1.4944,1.4942,1.4941,1.494,1.4936,1.4968,1.4938,1.4938,1.4938,1.4938,1.4938,0,1.4622,1.4642,1.4656,1.4683,1.4696,1.4718,1.4741,1.475,1.4762,1.4784,1.4799,1.4818,1.4835,1.4863,1.4883,1.4886,1.4897,1.489,1.4889,1.4893,1.4926,1.4925,1.4881,1.4881,1.4881,1.4881,1.4881,1.4881,1.46,1.4608,1.4627,1.4644,1.4664,1.4679,1.4691,1.4707,1.4725,1.4745,1.476,1.4779,1.4803,1.4825,1.4841,1.4849,1.4854,1.4844,1.4855,1.4885,1.489,1.4895,1.4894,1.4845,1.4845,1.4821,1.4821,1.4821]},{"header":{"parameterUnit":"m.s-1","parameterCategory":1,"la1":30.2991,"la2":30.254,"lo1":-89.0895,"lo2":-89.0444,"dy":0.0017,"dx":0.0017,"nx":28,"ny":28,"refTime":"2025-09-18T03:00:00:Z","depth":0,"parameterNumber":3,"parameterNumberName":"V-component_of_WINDS"},"data":[0,0,0,0,0,0,0,0,0,0,0,0,0,0,0,0,0,0,0,0,0,0,0,0,0,0,0,0,0,0,0,0,0,0,0,0,0,0,0,0,0,0,0,0,0,0,0,0,0,0,0,0,0,0,0,0,0,0,-2.5438,-2.5438,0,-2.5501,-2.5502,-2.5503,-2.5504,-2.5503,-2.5502,-2.5501,-2.5565,-2.5567,-2.557,0,0,0,0,0,0,0,0,0,0,0,0,0,-2.5316,-2.5318,-2.5437,-2.5438,-2.5439,-2.5501,-2.5502,-2.5503,-2.5504,-2.5503,-2.5502,-2.5501,-2.5564,-2.5567,-2.557,0,0,0,0,0,0,0,0,0,0,0,0,0,-2.5373,-2.5319,-2.5437,-2.5447,-2.5449,-2.5501,-2.5502,-2.5503,-2.5504,-2.5503,-2.5502,-2.55,-2.5563,-2.5567,-2.557,-2.5617,0,0,-2.5581,-2.5583,0,0,0,0,0,0,0,0,-2.537,-2.5378,-2.5445,-2.5446,-2.5448,-2.5493,-2.5483,-2.5541,-2.5504,-2.5483,-2.5501,-2.55,-2.5542,-2.5547,-2.5562,-2.562,-2.5622,-2.5582,-2.5584,-2.5586,-2.5587,0,0,0,0,0,0,0,-2.5366,-2.5375,-2.5463,-2.5446,-2.5448,-2.5448,-2.5455,-2.5494,-2.5518,-2.5485,-2.5485,-2.5492,-2.5543,-2.5558,-2.5563,-2.5623,-2.5582,-2.5585,-2.5587,-2.5589,-2.5725,-2.5726,0,0,0,0,0,0,-2.536,-2.5372,-2.5461,-2.5465,-2.5405,-2.5451,-2.5459,-2.548,-2.5518,-2.5522,-2.5493,-2.5492,-2.5553,-2.5559,-2.5565,-2.5624,-2.5585,-2.5589,-2.5591,-2.5724,-2.5725,-2.5727,0,0,0,0,0,0,-2.5358,-2.5368,-2.5458,-2.5418,-2.543,-2.5455,-2.5478,-2.5482,-2.5498,-2.5525,-2.5529,-2.5505,-2.5552,-2.556,-2.5605,-2.5626,-2.5591,-2.5594,-2.5722,-2.5724,-2.5726,-2.5741,0,0,0,0,0,0,-2.5354,-2.5367,-2.5385,-2.5419,-2.5432,-2.5496,-2.548,-2.5484,-2.5504,-2.5503,-2.5536,-2.5541,-2.5552,-2.5599,-2.5608,-2.5631,-2.5597,-2.572,-2.5723,-2.5725,-2.5738,-2.5743,-2.5747,0,0,0,0,0,-2.535,-2.5386,-2.5386,-2.5397,-2.5455,-2.5497,-2.5505,-2.5517,-2.5506,-2.5524,-2.5542,-2.554,-2.5622,-2.5604,-2.5614,-2.5638,-2.5719,-2.5722,-2.5725,-2.5736,-2.5742,-2.5747,0,0,0,0,0,0,-2.5353,-2.539,-2.5391,-2.5439,-2.5465,-2.5498,-2.5521,-2.5522,-2.5552,-2.555,-2.5563,-2.5571,-2.5615,-2.5631,-2.5609,-2.5686,-2.5669,-2.5675,-2.5674,-2.568,-2.5684,-2.568,-2.56,0,0,0,0,0,-2.536,-2.5392,-2.5422,-2.5461,-2.5475,-2.5496,-2.5515,-2.5522,-2.5549,-2.556,-2.5581,-2.5608,-2.564,-2.566,-2.5691,-2.574,-2.5748,-2.5762,-2.5766,-2.577,-2.5774,-2.5803,-2.581,-2.5737,-2.5737,-2.5737,0,0,-2.5373,-2.5397,-2.5416,-2.5463,-2.5484,-2.5517,-2.5505,-2.554,-2.5565,-2.5565,-2.5609,-2.5625,-2.5656,-2.5703,-2.5725,-2.5718,-2.5796,-2.5774,-2.5776,-2.5779,-2.5807,-2.5814,-2.582,-2.574,-2.5739,-2.5739,0,0,-2.5415,-2.5436,-2.5472,-2.5494,-2.5527,-2.554,-2.5549,-2.5582,-2.5593,-2.5637,-2.5639,-2.5669,-2.5723,-2.5746,-2.5764,-2.5816,-2.5816,-2.5826,-2.5848,-2.5876,-2.5882,-2.5887,-2.5907,-2.5914,-2.583,-2.583,-2.583,0,-2.5427,-2.5477,-2.549,-2.5526,-2.5547,-2.555,-2.5587,-2.5608,-2.5648,-2.5663,-2.5654,-2.5724,-2.5744,-2.5798,-2.5811,-2.5825,-2.5836,-2.5822,-2.588,-2.5886,-2.5891,-2.591,-2.5917,-2.5831,-2.5831,-2.5831,-2.5831,0,-2.5491,-2.5526,-2.5551,-2.5592,-2.5616,-2.5652,-2.5671,-2.5693,-2.5699,-2.5714,-2.5759,-2.5785,-2.5821,-2.5835,-2.584,-2.589,-2.5884,-2.5878,-2.5861,-2.5899,-2.5917,-2.5924,-2.5833,-2.5832,-2.5832,-2.5832,0,0,-2.5536,-2.5585,-2.5594,-2.5614,-2.5651,-2.5678,-2.5715,-2.5752,-2.5771,-2.5799,-2.5831,-2.5878,-2.5873,-2.5894,-2.5902,-2.5926,-2.5968,-2.5917,-2.5918,-2.5927,-2.6027,-2.6032,-2.604,-2.5968,-2.597,-2.5971,-2.6025,0,-2.5583,-2.5649,-2.5662,-2.572,-2.5753,-2.5757,-2.5789,-2.5816,-2.5831,-2.5861,-2.5878,-2.5912,-2.5902,-2.5915,-2.5939,-2.5958,-2.5989,-2.5954,-2.5998,-2.6,-2.5992,-2.605,-2.6055,-2.6105,-2.6032,-2.6033,-2.6034,0,-2.5646,-2.5677,-2.5738,-2.5773,-2.5787,-2.5816,-2.5852,-2.5881,-2.5911,-2.5921,-2.5945,-2.5951,-2.599,-2.5971,-2.6026,-2.6002,-2.6021,-2.6033,-2.6035,-2.604,-2.602,-2.6058,-2.6121,-2.6129,-2.6045,-2.6044,-2.6043,0,-2.5674,-2.5731,-2.5776,-2.5792,-2.5833,-2.5854,-2.5872,-2.5901,-2.5923,-2.5954,-2.5969,-2.6004,-2.6023,-2.6051,-2.6066,-2.6051,-2.612,-2.6102,-2.6129,-2.6129,-2.6144,-2.6143,-2.6212,-2.6155,-2.6154,-2.6154,-2.6154,0,-2.5725,-2.5763,-2.579,-2.5817,-2.586,-2.5875,-2.5916,-2.5934,-2.5961,-2.5992,-2.5997,-2.6026,-2.6044,-2.6076,-2.6088,-2.6132,-2.614,-2.615,-2.6153,-2.615,-2.6149,-2.6163,-2.6161,-2.6156,-2.6156,-2.6155,-2.6155,0,-2.5764,-2.5784,-2.5833,-2.5868,-2.5878,-2.5908,-2.5938,-2.5965,-2.5981,-2.6021,-2.6031,-2.6056,-2.6094,-2.6112,-2.6158,-2.6166,-2.6217,-2.6217,-2.6207,-2.6209,-2.6235,-2.6233,-2.6317,-2.6329,-2.6262,-2.6263,-2.6263,0,-2.5796,-2.5825,-2.5865,-2.5886,-2.5905,-2.594,-2.5963,-2.5979,-2.6003,-2.6041,-2.6064,-2.6103,-2.6134,-2.6195,-2.6217,-2.6253,-2.6255,-2.6282,-2.626,-2.6257,-2.6257,-2.6256,-2.6259,-2.6286,-2.6286,-2.6287,-2.6287,0,-2.5851,-2.586,-2.5893,-2.5931,-2.5958,-2.5988,-2.6017,-2.6035,-2.6056,-2.6083,-2.6122,-2.6147,-2.6196,-2.6234,-2.6272,-2.6291,-2.6293,-2.6294,-2.6302,-2.63,-2.6294,-2.63,-2.6219,-2.6292,-2.6292,-2.6291,-2.6291,-2.6291,-2.5889,-2.5916,-2.5948,-2.5985,-2.601,-2.6037,-2.6065,-2.6085,-2.6119,-2.616,-2.6168,-2.621,-2.6241,-2.6293,-2.6313,-2.6347,-2.634,-2.6352,-2.6355,-2.6358,-2.6361,-2.6288,-2.6353,-2.6353,-2.6353,-2.6353,-2.6353,0,-2.5945,-2.5967,-2.6001,-2.6043,-2.6073,-2.6073,-2.6106,-2.6131,-2.6168,-2.6197,-2.6229,-2.6275,-2.6313,-2.6339,-2.6378,-2.64,-2.6402,-2.6409,-2.6408,-2.6413,-2.6363,-2.6353,-2.6407,-2.6407,-2.6407,-2.6407,-2.6407,-2.6407,-2.5978,-2.6024,-2.6037,-2.6096,-2.6117,-2.6159,-2.6178,-2.6204,-2.6228,-2.628,-2.6312,-2.6329,-2.6357,-2.6398,-2.6433,-2.644,-2.6454,-2.6462,-2.6469,-2.6422,-2.6416,-2.6411,-2.6401,-2.6465,-2.6465,-2.6516,-2.6516,-2.6517]}]]